Location: Dammartin
(48.9032°N, 1.6195°E)
Time: 14:58:01
(UTC+00:00)

Cosmos 2278 Rocket - Pass Details

Date: 03 February 2023
Orbit: 841 x 845 km, 71.0° (Epoch: 31 March)

Event Time Altitude Azimuth Distance (km) Brightness Sun altitude
Rises 18:10:29 0° 335° (NNW) 3,416 5.6 -12.8°
Reaches altitude 10° 18:13:46 10° 354° (N) 2,478 4.6 -13.3°
Maximum altitude 18:17:37 18° 37° (NE) 1,954 3.7 -14.0°
Enters shadow 18:18:57 17° 54° (NE) 2,022 3.6 -14.2°
